Hourly Weather Roundup
Issued by NWS Central Illinois

Home | Current Version | Previous Version | Text Only | Print | Product List | Glossary On
Versions: 1 2 3 4 5 6 7 8 9 10 11 12 13 14 15 16 17 18 19 20 21 22 23 24 25 26 27 28 29 30 31 32 33 34 35 36 37 38 39 40 41 42 43 44 45 46 47 48 49 50
000
NZUS43 KILX 240110
HWRILX

Area Weather Roundup
National Weather Service Lincoln IL
800 PM CDT MON OCT 23 2017

NOTE:  "FAIR" indicates few or no clouds below 12,000 feet, with
       no sigificant weather and/or obstructions to visibility.


CITY           SKY/WX    TMP DP  RH WIND       PRES   REMARKS
Bloomington    LGT RAIN  54  47  77 W15G23    29.75R
Champaign      CLOUDY    54  48  82 SW8       29.74S
Danville       CLOUDY    50  50  98 SW7       29.71R
Decatur        LGT RAIN  55  46  71 W9        29.76R
Effingham      CLOUDY    54  46  74 SW7       29.79R
Flora          CLOUDY    56  47  73 S7        29.79R
Jacksonville   CLOUDY    52  47  83 CALM      29.81F
Lacon          LGT RAIN  53  48  83 W12       29.73R
Lawrenceville  LGT RAIN  52  32  46 S7        29.79S
Litchfield     LGT RAIN  53  46  78 NW15G24   29.83R
$$


CITY           SKY/WX    TMP DP  RH WIND       PRES   REMARKS
Lincoln        RAIN      53  49  86 NW9G18    29.79R
Macomb         CLOUDY    51  49  93 W7        29.80F
Mattoon        CLOUDY    52  52 100 S6        29.73F
Mt Carmel AP   CLOUDY    53  47  81 S6        29.78F
Olney-Noble AP CLOUDY    54  45  73 S3        29.78F
Paris AP       CLOUDY    51  50  99 SW8       29.75F
Peoria         LGT RAIN  52  49  89 W5        29.76S
Pontiac        LGT RAIN  53  52  96 W9        29.72S
Rantoul        CLOUDY    53  51  94 SW6       29.73S
Robinson       CLOUDY    50  48  93 S5        29.78F
Springfield    LGT RAIN  53  49  86 NW9       29.80R
Taylorville    DRIZZLE   53  48  83 NW14G28   29.80R
$$

...REGIONAL REPORTS...


CITY           SKY/WX    TMP DP  RH WIND       PRES   REMARKS
Chicago O`Hare CLOUDY    52  45  77 SW7       29.65S
Kankakee       CLOUDY    50  49  98 SW3       29.70F
Moline         CLOUDY    54  45  71 W14       29.75S
Mount Sterling MOCLDY    50  46  85 W5        29.81S
Mount Vernon   CLOUDY    56  50  80 W3        29.80S
Pittsfield     PTCLDY    52  47  82 CALM      29.83F
Quincy         CLOUDY    56  43  61 W16       29.83R
Rockford       LGT RAIN  52  46  80 W15       29.70R
$$


CITY           SKY/WX    TMP DP  RH WIND       PRES   REMARKS
Burlington     CLOUDY    57  41  55 NW16G24   29.80R
Cedar Rapids   CLOUDY    51  40  65 NW30G37   29.80R
Des Moines     CLOUDY    50  33  52 NW14G28   29.94R
Kirksville     PTCLDY    54  37  52 NW20G26   29.91R
Ottumwa        CLOUDY    53  38  56 NW23G35   29.87R
St Louis       CLOUDY    59  45  59 NW8       29.85R
$$


CITY           SKY/WX    TMP DP  RH WIND       PRES   REMARKS
Terre Haute    CLOUDY    51  49  92 SW7       29.76R
Evansville     CLOUDY    52  46  80 S5        29.83R
Indianapolis   CLOUDY    48  46  93 SW7       29.73R
Lafayette      CLOUDY    50  50 100 W8        29.71R
Madison        LGT RAIN  52  43  71 VRB6      29.65F
Milwaukee      CLOUDY    52  45  77 CALM      29.63F
$$






USA.gov is the U.S. government's official web portal to all federal, state and local government web resources and services.